sat.trackr.live / text

‹ back to catalog

PIESAT B

NORAD 56154 · 2023-047B

PAYLOAD ACTIVE UNKNOWN

§ Identity

Operator
Country
PRC
Launch date
2023-03-30
Launch site
TAISC
Launch vehicle
Mass (kg)
RCS (m²)

External: N2YO · Heavens-Above · Gunter

§ Orbital elements

Epoch: 2026-09-21T13:32:55.160448Z

Period
95.09 min
Inclination
97.5003°
Eccentricity
0.0001483
Mean motion
15.14290171 rev/d
Perigee alt
522.1 km
Apogee alt
524.2 km
Semi-major
6,901.3 km
B*
6.2650e-5
RAAN
90.3192°
Arg perigee
112.1324°
Mean anomaly
248.0066°
Rev number
19,238

§ Raw data

PIESAT B1 56154U 23047B   26264.56452732  .00001081  00000+0  62650-4 0  99932 56154  97.5003  90.3192 0001483 112.1324 248.0066 15.14290171192381

JSON: /api/v1/satellites/56154 · /tle

For live sub-satellite position, see the globe view (requires WebGL).

§ Visibility from observer

Set your observer location to see the next 7 days of passes ≥ 10°. The values pass through the URL so the page stays shareable.

No JS? Fill the form by hand. The geolocation button needs JavaScript.